Location: El Gavilán
(32.5178°N, 116.7422°W)
Time: 21:32:50
(UTC+00:00)

BlueWalker 3 - Pass Details

Date: 10 August 2024
Orbit: 475 x 487 km, 53.2° (Epoch: 16 September)

Event Time Altitude Azimuth Distance (km) Brightness Sun altitude
Exits shadow 10:02:56 11° 2° (N) 1,641 5.1 -32.8°
Drops below altitude 10° 10:03:06 10° 5° (N) 1,681 5.2 -32.8°
Sets 10:06:00 0° 28° (NNE) 2,567 6.6 -32.4°
